User: anonymous   Login
Location: Montreal
(45.5000°N, 73.5833°W)
Time: 17:30:02
(UTC-04:00)
Language:

N. Korean satellite - Orbit

View from above orbital plane
View from above orbital plane
View from above satellite
View from above satellite

Ground track
Ground track

The orbit data is extracted from the following two-line orbital elements,

1 39026U 12072A   18199.94199259 +.00001053 +00000-0 +41849-4 0  9997
2 39026 097.2099 209.2281 0038223 208.1123 151.8053 15.26839707310440
Epoch (UTC): 18 July 2018 22:36:28
Eccentricity: 0.0038223
inclination: 97.2099°
perigee height: 459 km
apogee height: 511 km
right ascension of ascending node: 209.2281°
argument of perigee: 208.1123°
revolutions per day: 15.26839707
mean anomaly at epoch: 151.8053°
orbit number at epoch: 31044

The dashed part of the orbit path shows where the satellite is in the earth's shadow,  

DLR